Location: Cleveland
(41.4990°N, 81.6960°W)
Time: 00:30:37
(UTC-05:00)

BlueWalker 3 - Visible Passes

Search period start: 02 December 2023 00:00
Search period end: 12 December 2023 00:00
Orbit: 489 x 504 km, 53.2° (Epoch: 01 December)

Date Brightness Start Highest point End Pass type
(mag) Time Alt. Az. Time Alt. Az. Time Alt. Az.
02 Dec 3.4 05:20:50 30° NNE 05:20:50 30° NNE 05:24:07 10° E visible
02 Dec 2.4 06:55:31 10° WNW 06:59:12 46° SW 07:02:51 10° SSE visible
03 Dec 4.0 04:59:19 24° ENE 04:59:19 24° ENE 05:01:28 10° E visible
03 Dec 2.3 06:33:53 17° WNW 06:36:34 47° SW 06:40:13 10° SSE visible
04 Dec 4.8 04:37:51 16° E 04:37:51 16° E 04:38:48 10° E visible
04 Dec 2.3 06:12:25 30° W 06:13:55 48° SW 06:17:35 10° SSE visible
05 Dec 2.2 05:51:02 48° WSW 05:51:15 49° SW 05:54:55 10° SSE visible
06 Dec 3.0 05:29:40 36° S 05:29:40 36° S 05:32:14 10° SSE visible
07 Dec 4.2 05:08:24 18° SSE 05:08:24 18° SSE 05:09:33 10° SSE visible
11 Dec 4.5 18:55:23 10° SSE 18:55:34 11° SSE 18:55:34 11° SSE visible
